Regional Weather Roundup
Issued by NWS

Home | Current Version | Previous Version | Text Only | Print | Product List | Glossary Off
Versions: 1 2 3 4 5 6 7 8 9 10 11 12 13 14 15 16 17 18 19 20 21 22 23 24 25 26 27 28 29 30 31 32 33 34 35 36 37 38 39 40 41 42 43 44 45 46 47 48 49 50

000
ASUS44 KMEG 021210
RWRTN
TENNESSEE HOURLY STATE WEATHER ROUNDUP
NATIONAL WEATHER SERVICE MEMPHIS TN
700 AM CDT WED SEP 02 2015

TNZ002-004-019-021-049-052-054-088>092-021300-
WEST TENNESSEE

CITY           SKY/WX    TMP DP  RH WIND       PRES   REMARKS
MEMPHIS INTL   CLOUDY    77  70  79 CALM      30.11R
NWS MEMPHIS      N/A     73 N/A N/A MISG        N/A
JACKSON        MOCLDY    70  68  93 CALM      30.12R FOG
DYERSBURG      PTCLDY    70  70 100 CALM      30.13R
$$

TNZ008-025-027-028-033-062-065-066-021300-
NORTH MIDDLE TENNESSEE

CITY           SKY/WX    TMP DP  RH WIND       PRES   REMARKS
NASHVILLE      CLOUDY    71  67  87 CALM      30.14R
CLARKSVILLE    CLOUDY    69  67  93 NE5       30.13R FOG
SMYRNA         MOCLDY    68  67  96 CALM      30.14R
COOKEVILLE     CLEAR     64  64 100 CALM      30.15R
CROSSVILLE     MOCLDY    66  63  90 CALM      30.20R FOG
$$

TNZ061-075-076-078-094-096-097-021300-
SOUTH MIDDLE TENNESSEE

CITY           SKY/WX    TMP DP  RH WIND       PRES   REMARKS
FAYETTEVILLE   PTCLDY    66  66 100 CALM      30.14R
$$

TNZ017-018-042-046-047-021300-
NORTHEAST TENNESSEE

CITY           SKY/WX    TMP DP  RH WIND       PRES   REMARKS
TRI CITIES     MOSUNNY   66  64  93 CALM      30.19R
ELIZABETHTON   SUNNY     64  63  94 CALM      30.19S
$$

TNZ012-013-036-069-073-074-021300-
CENTRAL EAST TENNESSEE

CITY           SKY/WX    TMP DP  RH WIND       PRES   REMARKS
KNOXVILLE      CLOUDY    69  69 100 CALM      30.14R
OAK RIDGE      MOCLDY    69  66  90 CALM      30.16R
$$

TNZ083-085-099-021300-
SOUTHEAST TENNESSEE

CITY           SKY/WX    TMP DP  RH WIND       PRES   REMARKS
CHATTANOOGA    MOCLDY    72  69  90 CALM      30.14R
$$

SKY/WX REPORTED AS FAIR MEANS FEW OR NO CLOUDS BELOW
12 THOUSAND FEET.



USA.gov is the U.S. government's official web portal to all federal, state and local government web resources and services.